Weather History for Brenham, TX

Change the Weather History Date:

Sunday, November 17, 2013

  Actual Average (KCLL) Record (KCLL)
Temperature  
Mean Temperature 80 °F 60 °F  
Max Temperature 88 °F 70 °F 85 °F (1921)
Min Temperature 73 °F 50 °F 28 °F (1959)
Degree Days  
Heating Degree Days 0 6  
Month to date heating degree days 77  
Since 1 July heating degree days 114  
Cooling Degree Days 16 2  
Month to date cooling degree days 47  
Year to date cooling degree days 3059  
Growing Degree Days 30 (Base 50)    
Moisture  
Dew Point 71 °F    
Average Humidity 76    
Maximum Humidity 91    
Minimum Humidity 51    
Precipitation  
Precipitation 0.00 in 0.10 in 1.89 in (2004)
Month to date precipitation 1.92  
Year to date precipitation 35.53  
Sea Level Pressure  
Sea Level Pressure 29.86 in    
Wind  
Wind Speed 7 mph (SSW)    
Max Wind Speed 17 mph    
Max Gust Speed 23 mph    
Visibility 10 miles    
Events Rain    
T = Trace of Precipitation, MM = Missing Value Source: NWS Daily Summary

Daily Weather History Graph

Daily Weather History Graph

Search for Another Location

Airport:

Trip Planner

Search our weather history database for the weather conditions in past years. The results will help you decide how hot, cold, wet, or windy it might be!

Date:

Astronomy

Nov. 17, 2013 Rise Set
Actual Time 6:52 AM CST 5:27 PM CST
Civil Twilight 6:27 AM CST 5:53 PM CST
Nautical Twilight 5:58 AM CST 6:22 PM CST
Astronomical Twilight 5:29 AM CST 6:51 PM CST
Moon 5:45 PM CST (11/17) 6:48 AM CST (11/17)
Length of Visible Light 11h 26m
Length of Day
10h 35m
Full, 100% of the Moon is Illuminated
Nov 17
Full
Nov 25
Last Quarter
Dec 2
New
Dec 9
First Quarter
Dec 17
Full

Hourly Weather History & Observations

Time (CST) Temp. Heat Index Dew Point Humidity Pressure Visibility Wind Dir Wind Speed Gust Speed Precip Events Conditions
12:15 AM 77.2 °F - 73.6 °F 89% 29.83 in 10.0 mi South 8.1 mph - N/A Rain Light Rain
12:35 AM 77.0 °F - 73.4 °F 89% 29.83 in 10.0 mi South 6.9 mph - N/A   Mostly Cloudy
12:55 AM 77.0 °F - 73.4 °F 89% 29.82 in 10.0 mi South 9.2 mph - N/A   Mostly Cloudy
1:15 AM 77.0 °F - 73.0 °F 88% 29.81 in 10.0 mi South 10.4 mph - N/A   Mostly Cloudy
1:35 AM 77.4 °F - 72.9 °F 86% 29.81 in 10.0 mi South 10.4 mph - N/A   Mostly Cloudy
1:55 AM 77.5 °F - 72.7 °F 85% 29.81 in 10.0 mi South 10.4 mph - N/A   Mostly Cloudy
2:15 AM 77.9 °F - 72.5 °F 83% 29.81 in 10.0 mi South 9.2 mph - N/A   Mostly Cloudy
2:35 AM 77.9 °F - 72.5 °F 83% 29.82 in 10.0 mi SSW 8.1 mph - N/A   Overcast
2:55 AM 77.9 °F - 72.5 °F 83% 29.82 in 10.0 mi SSW 5.8 mph - N/A   Overcast
3:15 AM 77.9 °F - 72.7 °F 84% 29.82 in 10.0 mi SSW 5.8 mph - N/A   Overcast
3:35 AM 77.4 °F - 72.7 °F 85% 29.82 in 10.0 mi South 8.1 mph - N/A   Overcast
3:55 AM 77.5 °F - 72.7 °F 85% 29.82 in 10.0 mi South 10.4 mph - N/A   Mostly Cloudy
4:15 AM 77.7 °F - 72.5 °F 84% 29.82 in 10.0 mi South 9.2 mph - N/A   Overcast
4:35 AM 77.4 °F - 72.5 °F 85% 29.81 in 10.0 mi South 8.1 mph - N/A   Mostly Cloudy
4:55 AM 77.0 °F - 72.1 °F 85% 29.82 in 10.0 mi South 6.9 mph - N/A   Mostly Cloudy
5:15 AM 77.2 °F - 72.0 °F 84% 29.82 in 10.0 mi SSW 6.9 mph - N/A   Overcast
5:35 AM 77.2 °F - 71.8 °F 83% 29.83 in 10.0 mi SSW 6.9 mph - N/A   Overcast
5:55 AM 77.0 °F - 71.6 °F 83% 29.83 in 10.0 mi SSW 5.8 mph - N/A   Mostly Cloudy
6:15 AM 77.0 °F - 71.1 °F 82% 29.83 in 10.0 mi SSW 9.2 mph - N/A   Mostly Cloudy
6:35 AM 77.0 °F - 70.9 °F 81% 29.83 in 10.0 mi South 9.2 mph - N/A   Mostly Cloudy
6:55 AM 76.5 °F - 70.7 °F 82% 29.84 in 10.0 mi SSW 8.1 mph - N/A   Mostly Cloudy
7:15 AM 76.1 °F - 70.7 °F 83% 29.85 in 10.0 mi SSW 6.9 mph - N/A   Mostly Cloudy
7:35 AM 76.5 °F - 70.9 °F 83% 29.86 in 10.0 mi SSW 6.9 mph - N/A   Mostly Cloudy
7:55 AM 76.5 °F - 71.1 °F 83% 29.87 in 10.0 mi SSW 8.1 mph - N/A   Mostly Cloudy
8:15 AM 77.0 °F - 71.1 °F 82% 29.87 in 10.0 mi SSW 9.2 mph - N/A   Overcast
8:35 AM 77.4 °F - 71.1 °F 81% 29.88 in 10.0 mi SSW 8.1 mph 17.3 mph N/A   Overcast
8:55 AM 78.3 °F - 71.1 °F 78% 29.88 in 10.0 mi South 12.7 mph - N/A   Overcast
9:15 AM 79.9 °F - 71.1 °F 74% 29.88 in 10.0 mi South 15.0 mph 20.7 mph N/A   Mostly Cloudy
9:35 AM 80.4 °F 84.1 °F 70.9 °F 73% 29.88 in 10.0 mi South 11.5 mph 17.3 mph N/A   Scattered Clouds
9:55 AM 80.2 °F 83.5 °F 70.2 °F 71% 29.89 in 10.0 mi SSW 17.3 mph 23.0 mph N/A   Scattered Clouds
10:15 AM 82.8 °F 87.7 °F 71.8 °F 69% 29.90 in 10.0 mi SSW 16.1 mph 21.9 mph N/A   Scattered Clouds
10:35 AM 83.3 °F 87.9 °F 70.7 °F 66% 29.88 in 10.0 mi South 15.0 mph 19.6 mph N/A   Scattered Clouds
10:55 AM 82.8 °F 87.2 °F 70.7 °F 67% 29.89 in 10.0 mi SW 13.8 mph - N/A   Scattered Clouds
11:15 AM 84.6 °F 89.7 °F 71.1 °F 64% 29.88 in 10.0 mi SW 9.2 mph 16.1 mph N/A   Scattered Clouds
11:35 AM 83.8 °F 88.6 °F 70.9 °F 65% 29.88 in 10.0 mi SW 10.4 mph - N/A   Mostly Cloudy
11:55 AM 84.9 °F 90.1 °F 70.9 °F 63% 29.87 in 10.0 mi SSW 11.5 mph 19.6 mph N/A   Mostly Cloudy
12:15 PM 84.6 °F 89.4 °F 70.9 °F 63% 29.86 in 10.0 mi WSW 9.2 mph - N/A   Mostly Cloudy
12:35 PM 85.6 °F 90.8 °F 70.9 °F 61% 29.85 in 10.0 mi SW 8.1 mph - N/A   Mostly Cloudy
12:55 PM 86.5 °F 92.1 °F 71.1 °F 60% 29.84 in 10.0 mi SSW 10.4 mph 17.3 mph N/A   Scattered Clouds
1:15 PM 87.6 °F 93.5 °F 71.4 °F 58% 29.84 in 10.0 mi SW 9.2 mph - N/A   Scattered Clouds
1:35 PM 87.3 °F 92.8 °F 70.7 °F 58% 29.84 in 10.0 mi SSW 8.1 mph - N/A   Scattered Clouds
1:55 PM 87.8 °F 93.8 °F 71.2 °F 58% 29.83 in 10.0 mi SSW 8.1 mph - N/A   Scattered Clouds
2:15 PM 87.6 °F 93.1 °F 70.5 °F 57% 29.83 in 10.0 mi SW 8.1 mph - N/A   Scattered Clouds
2:35 PM 87.8 °F 92.6 °F 70.0 °F 55% 29.83 in 10.0 mi SW 5.8 mph - N/A   Scattered Clouds
2:55 PM 86.9 °F 91.7 °F 70.2 °F 57% 29.83 in 10.0 mi West 4.6 mph - N/A   Mostly Cloudy
3:15 PM 87.3 °F 92.0 °F 69.6 °F 56% 29.83 in 10.0 mi West 4.6 mph - N/A   Scattered Clouds
3:35 PM 88.0 °F 91.4 °F 68.0 °F 51% 29.83 in 10.0 mi WNW 3.5 mph - N/A   Scattered Clouds
3:55 PM 87.3 °F 91.2 °F 68.9 °F 54% 29.83 in 10.0 mi NNW 4.6 mph - N/A   Clear
4:15 PM 86.9 °F 91.0 °F 68.9 °F 55% 29.84 in 10.0 mi WNW 3.5 mph - N/A   Clear
4:35 PM 86.2 °F 90.0 °F 68.7 °F 56% 29.84 in 10.0 mi NW 3.5 mph - N/A   Clear
4:55 PM 85.3 °F 89.1 °F 68.9 °F 58% 29.85 in 10.0 mi Calm Calm - N/A   Clear
5:15 PM 84.0 °F 87.8 °F 69.3 °F 61% 29.85 in 10.0 mi Calm Calm - N/A   Clear
5:35 PM 82.2 °F 85.8 °F 69.3 °F 65% 29.86 in 10.0 mi Calm Calm - N/A   Clear
5:55 PM 81.0 °F 84.1 °F 69.1 °F 67% 29.87 in 10.0 mi Calm Calm - N/A   Clear
6:15 PM 78.8 °F - 69.1 °F 72% 29.87 in 10.0 mi Calm Calm - N/A   Clear
6:35 PM 77.0 °F - 69.3 °F 77% 29.89 in 10.0 mi Calm Calm - N/A   Clear
6:55 PM 76.3 °F - 70.0 °F 81% 29.90 in 10.0 mi Calm Calm - N/A   Clear
7:15 PM 77.0 °F - 70.0 °F 79% 29.90 in 10.0 mi SSE 3.5 mph - N/A   Clear
7:35 PM 77.7 °F - 70.7 °F 79% 29.90 in 10.0 mi SE 3.5 mph - N/A   Clear
7:55 PM 77.9 °F - 71.1 °F 79% 29.90 in 10.0 mi SSE 4.6 mph - N/A   Clear
8:15 PM 77.0 °F - 71.2 °F 82% 29.91 in 10.0 mi Calm Calm - N/A   Clear
8:35 PM 76.3 °F - 71.2 °F 84% 29.92 in 10.0 mi Calm Calm - N/A   Clear
8:55 PM 76.3 °F - 71.6 °F 85% 29.92 in 10.0 mi Calm Calm - N/A   Clear
9:15 PM 75.6 °F - 71.1 °F 86% 29.93 in 10.0 mi Calm Calm - N/A   Clear
9:35 PM 75.2 °F - 70.7 °F 86% 29.93 in 10.0 mi SSE 3.5 mph - N/A   Clear
9:55 PM 74.7 °F - 70.7 °F 87% 29.94 in 10.0 mi Calm Calm - N/A   Clear
10:15 PM 74.5 °F - 70.7 °F 88% 29.94 in 10.0 mi Calm Calm - N/A   Clear
10:35 PM 73.9 °F - 70.7 °F 90% 29.95 in 7.0 mi Calm Calm - N/A   Clear
10:55 PM 73.6 °F - 70.3 °F 90% 29.95 in 7.0 mi Calm Calm - N/A   Clear
11:15 PM 73.4 °F - 70.2 °F 90% 29.95 in 5.0 mi Calm Calm - N/A   Clear
11:35 PM 73.4 °F - 70.7 °F 91% 29.95 in 3.0 mi Calm Calm - N/A   Mist
11:55 PM 73.4 °F - 70.7 °F 91% 29.95 in 3.0 mi Calm Calm - N/A   Mist